Torna al catalogo

STARLINK-35601

AttivoComunicazioniVLEO
NORAD 66149·PAYLOAD·🇺🇸 United States

Lanciato Oct 25, 2025 da Cape Canaveral Space Force Station

Loading…

Prossimi Passaggi (prossime 24 ore)

TLE

AggiornatoSource: CelesTrak SupGP

Epoca: Sep 14, 2026, 22:54 UTC

1 66149C 25240D   26257.95465278  .00038726  00000+0  11440-2 0  2571
2 66149  53.1565 261.4247 0001339  94.3662  57.6798 15.34374502    12

Traccia STARLINK-35601 in tempo reale con AllMySat

Download on the App Store